sat.trackr.live / text

‹ back to catalog

STARLINK-30368

NORAD 57752 · 2023-131W

PAYLOAD ACTIVE UNKNOWN

§ Identity

Operator
Country
US
Launch date
2023-09-01
Launch site
AFETR
Launch vehicle
Mass (kg)
RCS (m²)

Purposes: comms

External: N2YO · Heavens-Above · Gunter

§ Orbital elements

Epoch: 2026-05-24T20:46:52.317120Z

Period
94.27 min
Inclination
43.0046°
Eccentricity
0.0001049
Mean motion
15.27573247 rev/d
Perigee alt
482.3 km
Apogee alt
483.8 km
Semi-major
6,861.2 km
B*
2.8811e-5
RAAN
102.4704°
Arg perigee
277.7925°
Mean anomaly
82.2807°
Rev number
15,156

§ Raw data

STARLINK-303681 57752U 23131W   26144.86588330  .00000531  00000+0  28811-4 0  99962 57752  43.0046 102.4704 0001049 277.7925  82.2807 15.27573247151564

JSON: /api/v1/satellites/57752 · /tle

For live sub-satellite position, see the globe view (requires WebGL).

§ Visibility from observer

Set your observer location to see the next 7 days of passes ≥ 10°. The values pass through the URL so the page stays shareable.

No JS? Fill the form by hand. The geolocation button needs JavaScript.